contact:dominique.lefevre@mio.osupytheas.fr, maurice.libes@osupytheas.fr, didier.mallarino@osupytheas.fr
Project:EMSO http://www.emso-fr.org/EMSO-France
Depth: 2436.0 m
Title:EMSO Ligure Ouest : Data MII capteur OXYGEN
DateTime,Latitude,Longitude,Optode-Type,Optode_Serial,Oxygen,Saturation_Oxygen,Temperature
DateTime,Latitude,Longitude,Optode-Type,Optode_Serial,µmol.l-1,%,degC
2019-06-05T00:01:19,42.805,6.029,4330,1995,193.441,59.164,13.293
2019-06-05T00:04:19,42.805,6.029,4330,1995,193.458,59.169,13.293
2019-06-05T00:07:19,42.805,6.029,4330,1995,193.449,59.167,13.293
2019-06-05T00:10:19,42.805,6.029,4330,1995,193.484,59.177,13.293
2019-06-05T00:13:19,42.805,6.029,4330,1995,193.477,59.175,13.293
2019-06-05T00:16:19,42.805,6.029,4330,1995,193.550,59.197,13.293
2019-06-05T00:19:19,42.805,6.029,4330,1995,193.505,59.184,13.293
2019-06-05T00:22:19,42.805,6.029,4330,1995,193.500,59.182,13.293
2019-06-05T00:25:19,42.805,6.029,4330,1995,193.505,59.183,13.293
2019-06-05T00:28:19,42.805,6.029,4330,1995,193.437,59.163,13.293
2019-06-05T00:31:19,42.805,6.029,4330,1995,193.372,59.144,13.294
2019-06-05T00:34:19,42.805,6.029,4330,1995,193.346,59.135,13.293
2019-06-05T00:37:19,42.805,6.029,4330,1995,193.345,59.135,13.294
2019-06-05T00:40:19,42.805,6.029,4330,1995,193.427,59.160,13.294
2019-06-05T00:43:19,42.805,6.029,4330,1995,193.439,59.164,13.294
2019-06-05T00:46:19,42.805,6.029,4330,1995,193.480,59.176,13.294
2019-06-05T00:49:19,42.805,6.029,4330,1995,193.459,59.170,13.294
2019-06-05T00:52:19,42.805,6.029,4330,1995,193.462,59.171,13.294
2019-06-05T00:55:19,42.805,6.029,4330,1995,193.496,59.181,13.294
2019-06-05T00:58:19,42.805,6.029,4330,1995,193.446,59.165,13.293
2019-06-05T01:01:19,42.805,6.029,4330,1995,193.371,59.142,13.293
2019-06-05T01:04:19,42.805,6.029,4330,1995,193.429,59.160,13.293
2019-06-05T01:07:19,42.805,6.029,4330,1995,193.501,59.182,13.293
2019-06-05T01:10:19,42.805,6.029,4330,1995,193.535,59.193,13.294
2019-06-05T01:13:19,42.805,6.029,4330,1995,193.534,59.193,13.294
2019-06-05T01:16:19,42.805,6.029,4330,1995,193.473,59.174,13.294
2019-06-05T01:19:19,42.805,6.029,4330,1995,193.498,59.182,13.294
2019-06-05T01:22:19,42.805,6.029,4330,1995,193.473,59.175,13.295
2019-06-05T01:25:19,42.805,6.029,4330,1995,193.488,59.181,13.295
2019-06-05T01:28:19,42.805,6.029,4330,1995,193.453,59.171,13.296
2019-06-05T01:31:19,42.805,6.029,4330,1995,193.470,59.176,13.296
2019-06-05T01:34:19,42.805,6.029,4330,1995,193.487,59.182,13.296
2019-06-05T01:37:19,42.805,6.029,4330,1995,193.449,59.170,13.296
2019-06-05T01:40:18,42.805,6.029,4330,1995,193.416,59.160,13.296
2019-06-05T01:43:18,42.805,6.029,4330,1995,193.366,59.145,13.297
2019-06-05T01:46:18,42.805,6.029,4330,1995,193.331,59.134,13.296
2019-06-05T01:49:18,42.805,6.029,4330,1995,193.402,59.155,13.296
2019-06-05T01:52:18,42.805,6.029,4330,1995,193.374,59.147,13.296
2019-06-05T01:55:18,42.805,6.029,4330,1995,193.373,59.147,13.296
2019-06-05T01:58:18,42.805,6.029,4330,1995,193.411,59.158,13.296
2019-06-05T02:01:18,42.805,6.029,4330,1995,193.319,59.131,13.296
2019-06-05T02:04:18,42.805,6.029,4330,1995,193.130,59.073,13.297
2019-06-05T02:07:18,42.805,6.029,4330,1995,193.102,59.063,13.296
2019-06-05T02:10:18,42.805,6.029,4330,1995,193.163,59.082,13.295
2019-06-05T02:13:18,42.805,6.029,4330,1995,193.141,59.075,13.295
2019-06-05T02:16:18,42.805,6.029,4330,1995,193.268,59.113,13.295
2019-06-05T02:19:18,42.805,6.029,4330,1995,193.215,59.096,13.294
2019-06-05T02:22:18,42.805,6.029,4330,1995,193.141,59.074,13.294
2019-06-05T02:25:18,42.805,6.029,4330,1995,193.305,59.123,13.294
2019-06-05T02:28:18,42.805,6.029,4330,1995,193.320,59.126,13.293
2019-06-05T02:31:18,42.805,6.029,4330,1995,193.355,59.137,13.293
2019-06-05T02:34:18,42.805,6.029,4330,1995,193.316,59.126,13.293
2019-06-05T02:37:18,42.805,6.029,4330,1995,193.299,59.120,13.293
2019-06-05T02:40:18,42.805,6.029,4330,1995,193.313,59.124,13.293
2019-06-05T02:43:18,42.805,6.029,4330,1995,193.300,59.120,13.293
2019-06-05T02:46:18,42.805,6.029,4330,1995,193.263,59.108,13.293
2019-06-05T02:49:18,42.805,6.029,4330,1995,193.295,59.118,13.293
2019-06-05T02:52:18,42.805,6.029,4330,1995,193.294,59.119,13.293
2019-06-05T02:55:18,42.805,6.029,4330,1995,193.266,59.110,13.293
2019-06-05T02:58:18,42.805,6.029,4330,1995,193.313,59.124,13.293
2019-06-05T03:01:18,42.805,6.029,4330,1995,193.304,59.121,13.293
2019-06-05T03:04:18,42.805,6.029,4330,1995,193.381,59.145,13.293
2019-06-05T03:07:18,42.805,6.029,4330,1995,193.405,59.152,13.292
2019-06-05T03:10:18,42.805,6.029,4330,1995,193.399,59.151,13.293
2019-06-05T03:13:18,42.805,6.029,4330,1995,193.306,59.124,13.294
2019-06-05T03:16:18,42.805,6.029,4330,1995,193.324,59.129,13.294
2019-06-05T03:19:18,42.805,6.029,4330,1995,193.344,59.135,13.294
2019-06-05T03:22:18,42.805,6.029,4330,1995,193.379,59.146,13.294
2019-06-05T03:25:18,42.805,6.029,4330,1995,193.298,59.121,13.294
2019-06-05T03:28:18,42.805,6.029,4330,1995,193.338,59.134,13.294
2019-06-05T03:31:18,42.805,6.029,4330,1995,193.304,59.123,13.294
2019-06-05T03:34:18,42.805,6.029,4330,1995,193.363,59.141,13.294
2019-06-05T03:37:18,42.805,6.029,4330,1995,193.393,59.151,13.295
2019-06-05T03:40:18,42.805,6.029,4330,1995,193.339,59.136,13.295
2019-06-05T03:43:18,42.805,6.029,4330,1995,193.272,59.114,13.295
2019-06-05T03:46:18,42.805,6.029,4330,1995,193.396,59.151,13.294
2019-06-05T03:49:18,42.805,6.029,4330,1995,193.437,59.164,13.294
2019-06-05T03:52:18,42.805,6.029,4330,1995,193.488,59.180,13.294
2019-06-05T03:55:18,42.805,6.029,4330,1995,193.509,59.186,13.294
2019-06-05T03:58:18,42.805,6.029,4330,1995,193.499,59.183,13.294
2019-06-05T04:01:18,42.805,6.029,4330,1995,193.568,59.204,13.294
2019-06-05T04:04:18,42.805,6.029,4330,1995,193.510,59.186,13.294
2019-06-05T04:07:18,42.805,6.029,4330,1995,193.637,59.224,13.293
2019-06-05T04:10:18,42.805,6.029,4330,1995,193.646,59.228,13.294
2019-06-05T04:13:18,42.805,6.029,4330,1995,193.558,59.201,13.294
2019-06-05T04:16:18,42.805,6.029,4330,1995,193.570,59.205,13.295
2019-06-05T04:19:18,42.805,6.029,4330,1995,193.481,59.178,13.295
2019-06-05T04:22:18,42.805,6.029,4330,1995,193.472,59.175,13.295
2019-06-05T04:25:18,42.805,6.029,4330,1995,193.419,59.158,13.294
2019-06-05T04:28:18,42.805,6.029,4330,1995,193.517,59.188,13.294
2019-06-05T04:31:18,42.805,6.029,4330,1995,193.580,59.206,13.293
2019-06-05T04:34:18,42.805,6.029,4330,1995,193.653,59.232,13.296
2019-06-05T04:37:18,42.805,6.029,4330,1995,193.753,59.259,13.293
2019-06-05T04:40:18,42.805,6.029,4330,1995,193.835,59.286,13.295
2019-06-05T04:43:18,42.805,6.029,4330,1995,193.910,59.308,13.294
2019-06-05T04:46:18,42.805,6.029,4330,1995,193.839,59.285,13.293
2019-06-05T04:49:18,42.805,6.029,4330,1995,193.821,59.281,13.294
2019-06-05T04:52:18,42.805,6.029,4330,1995,193.914,59.309,13.294
2019-06-05T04:55:18,42.805,6.029,4330,1995,193.899,59.307,13.295
2019-06-05T04:58:18,42.805,6.029,4330,1995,193.904,59.307,13.295
2019-06-05T05:01:18,42.805,6.029,4330,1995,193.889,59.301,13.294
2019-06-05T05:04:18,42.805,6.029,4330,1995,193.900,59.306,13.295
2019-06-05T05:07:18,42.805,6.029,4330,1995,193.876,59.299,13.295
2019-06-05T05:10:18,42.805,6.029,4330,1995,193.842,59.288,13.295
2019-06-05T05:13:18,42.805,6.029,4330,1995,193.812,59.282,13.297
2019-06-05T05:16:18,42.805,6.029,4330,1995,193.874,59.301,13.297
2019-06-05T05:19:18,42.805,6.029,4330,1995,193.853,59.294,13.296
2019-06-05T05:22:18,42.805,6.029,4330,1995,193.713,59.251,13.296
2019-06-05T05:25:18,42.805,6.029,4330,1995,193.754,59.265,13.297
2019-06-05T05:28:18,42.805,6.029,4330,1995,193.715,59.252,13.297
2019-06-05T05:31:18,42.805,6.029,4330,1995,193.683,59.242,13.296
2019-06-05T05:34:18,42.805,6.029,4330,1995,193.611,59.218,13.295
2019-06-05T05:37:18,42.805,6.029,4330,1995,193.613,59.221,13.296
2019-06-05T05:40:18,42.805,6.029,4330,1995,193.639,59.229,13.297
2019-06-05T05:43:18,42.805,6.029,4330,1995,193.555,59.206,13.299
2019-06-05T05:46:18,42.805,6.029,4330,1995,193.430,59.168,13.299
2019-06-05T05:49:18,42.805,6.029,4330,1995,193.359,59.144,13.297
2019-06-05T05:52:18,42.805,6.029,4330,1995,193.394,59.154,13.297
2019-06-05T05:55:18,42.805,6.029,4330,1995,193.204,59.100,13.300
2019-06-05T05:58:18,42.805,6.029,4330,1995,193.113,59.073,13.300
2019-06-05T06:01:18,42.805,6.029,4330,1995,193.104,59.069,13.300
2019-06-05T06:04:18,42.805,6.029,4330,1995,193.119,59.073,13.299
2019-06-05T06:07:18,42.805,6.029,4330,1995,193.118,59.074,13.300
2019-06-05T06:10:18,42.805,6.029,4330,1995,192.982,59.036,13.303
2019-06-05T06:13:18,42.805,6.029,4330,1995,192.873,59.001,13.301
2019-06-05T06:16:18,42.805,6.029,4330,1995,192.885,58.999,13.297
2019-06-05T06:19:18,42.805,6.029,4330,1995,192.947,59.018,13.297
2019-06-05T06:22:18,42.805,6.029,4330,1995,193.060,59.053,13.297
2019-06-05T06:25:18,42.805,6.029,4330,1995,193.148,59.080,13.298
2019-06-05T06:28:18,42.805,6.029,4330,1995,193.038,59.049,13.299
2019-06-05T06:31:18,42.805,6.029,4330,1995,192.936,59.020,13.301
2019-06-05T06:34:18,42.805,6.029,4330,1995,192.797,58.975,13.300
2019-06-05T06:37:18,42.805,6.029,4330,1995,192.770,58.965,13.298
2019-06-05T06:40:18,42.805,6.029,4330,1995,192.743,58.958,13.299
2019-06-05T06:43:18,42.805,6.029,4330,1995,192.517,58.890,13.300
2019-06-05T06:46:18,42.805,6.029,4330,1995,192.203,58.794,13.300
2019-06-05T06:49:18,42.805,6.029,4330,1995,192.185,58.787,13.299
2019-06-05T06:52:18,42.805,6.029,4330,1995,192.343,58.832,13.296
2019-06-05T06:55:18,42.805,6.029,4330,1995,192.323,58.828,13.298
2019-06-05T06:58:18,42.805,6.029,4330,1995,192.270,58.815,13.300
2019-06-05T07:01:18,42.805,6.029,4330,1995,192.067,58.753,13.301
2019-06-05T07:04:18,42.805,6.029,4330,1995,191.928,58.715,13.304
2019-06-05T07:07:18,42.805,6.029,4330,1995,191.665,58.639,13.307
2019-06-05T07:10:18,42.805,6.029,4330,1995,191.641,58.628,13.305
2019-06-05T07:13:18,42.805,6.029,4330,1995,191.504,58.589,13.306
2019-06-05T07:16:18,42.805,6.029,4330,1995,191.662,58.637,13.307
2019-06-05T07:19:18,42.805,6.029,4330,1995,191.571,58.607,13.305
2019-06-05T07:22:18,42.805,6.029,4330,1995,191.468,58.573,13.303
2019-06-05T07:25:18,42.805,6.029,4330,1995,191.597,58.618,13.307
2019-06-05T07:28:18,42.805,6.029,4330,1995,191.796,58.677,13.305
2019-06-05T07:31:18,42.805,6.029,4330,1995,191.883,58.706,13.307
2019-06-05T07:34:18,42.805,6.029,4330,1995,191.902,58.709,13.305
2019-06-05T07:37:18,42.805,6.029,4330,1995,191.974,58.731,13.306
2019-06-05T07:40:18,42.805,6.029,4330,1995,191.839,58.692,13.307
2019-06-05T07:43:18,42.805,6.029,4330,1995,191.840,58.691,13.306
2019-06-05T07:46:18,42.805,6.029,4330,1995,191.927,58.716,13.305
2019-06-05T07:49:18,42.805,6.029,4330,1995,192.016,58.740,13.303
2019-06-05T07:52:18,42.805,6.029,4330,1995,191.960,58.726,13.305
2019-06-05T07:55:18,42.805,6.029,4330,1995,192.142,58.780,13.303
2019-06-05T07:58:18,42.805,6.029,4330,1995,192.186,58.787,13.298
2019-06-05T08:01:18,42.805,6.029,4330,1995,192.282,58.816,13.299
2019-06-05T08:04:18,42.805,6.029,4330,1995,192.400,58.854,13.300
2019-06-05T08:07:18,42.805,6.029,4330,1995,192.287,58.822,13.301
2019-06-05T08:10:18,42.805,6.029,4330,1995,192.321,58.834,13.303
2019-06-05T08:13:18,42.805,6.029,4330,1995,192.212,58.802,13.304
2019-06-05T08:16:18,42.805,6.029,4330,1995,192.188,58.795,13.304
2019-06-05T08:19:18,42.805,6.029,4330,1995,192.210,58.802,13.305
2019-06-05T08:22:18,42.805,6.029,4330,1995,192.148,58.781,13.303
2019-06-05T08:25:18,42.805,6.029,4330,1995,192.190,58.796,13.305
2019-06-05T08:28:18,42.805,6.029,4330,1995,192.093,58.767,13.305
2019-06-05T08:31:18,42.805,6.029,4330,1995,191.912,58.710,13.304
2019-06-05T08:34:18,42.805,6.029,4330,1995,192.041,58.742,13.298
2019-06-05T08:37:18,42.805,6.029,4330,1995,192.232,58.804,13.301
2019-06-05T08:40:18,42.805,6.029,4330,1995,192.495,58.880,13.298
2019-06-05T08:43:18,42.805,6.029,4330,1995,192.480,58.878,13.299
2019-06-05T08:46:18,42.805,6.029,4330,1995,192.369,58.844,13.300
2019-06-05T08:49:18,42.805,6.029,4330,1995,192.378,58.844,13.298
2019-06-05T08:52:18,42.805,6.029,4330,1995,192.189,58.796,13.305
2019-06-05T08:55:18,42.805,6.029,4330,1995,191.998,58.733,13.301
2019-06-05T08:58:18,42.805,6.029,4330,1995,191.919,58.711,13.303
2019-06-05T09:01:18,42.805,6.029,4330,1995,191.891,58.696,13.298
2019-06-05T09:04:18,42.805,6.029,4330,1995,192.076,58.757,13.302
2019-06-05T09:07:18,42.805,6.029,4330,1995,192.008,58.738,13.303
2019-06-05T09:10:18,42.805,6.029,4330,1995,192.126,58.771,13.300
2019-06-05T09:13:18,42.805,6.029,4330,1995,192.056,58.752,13.302
2019-06-05T09:16:18,42.805,6.029,4330,1995,191.914,58.707,13.301
2019-06-05T09:19:18,42.805,6.029,4330,1995,191.900,58.700,13.299
2019-06-05T09:22:18,42.805,6.029,4330,1995,191.824,58.678,13.299
2019-06-05T09:25:18,42.805,6.029,4330,1995,192.058,58.747,13.298
2019-06-05T09:28:18,42.805,6.029,4330,1995,192.420,58.859,13.299
2019-06-05T09:31:18,42.805,6.029,4330,1995,192.683,58.937,13.297
2019-06-05T09:34:18,42.805,6.029,4330,1995,192.639,58.930,13.302
2019-06-05T09:37:18,42.805,6.029,4330,1995,192.540,58.899,13.301
2019-06-05T09:40:18,42.805,6.029,4330,1995,192.445,58.872,13.303
2019-06-05T09:43:18,42.805,6.029,4330,1995,192.408,58.859,13.302
2019-06-05T09:46:18,42.805,6.029,4330,1995,192.363,58.847,13.303
2019-06-05T09:49:18,42.805,6.029,4330,1995,192.260,58.817,13.304
2019-06-05T09:52:18,42.805,6.029,4330,1995,192.101,58.772,13.307
2019-06-05T09:55:18,42.805,6.029,4330,1995,192.105,58.770,13.304
2019-06-05T09:58:18,42.805,6.029,4330,1995,192.090,58.766,13.305
2019-06-05T10:01:18,42.805,6.029,4330,1995,192.164,58.788,13.304
2019-06-05T10:04:18,42.805,6.029,4330,1995,192.038,58.750,13.305
2019-06-05T10:07:18,42.805,6.029,4330,1995,191.779,58.676,13.309
2019-06-05T10:10:18,42.805,6.029,4330,1995,191.551,58.603,13.307
2019-06-05T10:13:18,42.805,6.029,4330,1995,191.418,58.560,13.305
2019-06-05T10:16:18,42.805,6.029,4330,1995,191.537,58.594,13.303
2019-06-05T10:19:18,42.805,6.029,4330,1995,191.631,58.629,13.307
2019-06-05T10:22:18,42.805,6.029,4330,1995,191.686,58.644,13.306
2019-06-05T10:25:18,42.805,6.029,4330,1995,191.909,58.709,13.304
2019-06-05T10:28:18,42.805,6.029,4330,1995,192.061,58.756,13.304
2019-06-05T10:31:18,42.805,6.029,4330,1995,192.153,58.786,13.305
2019-06-05T10:34:18,42.805,6.029,4330,1995,192.186,58.797,13.306
2019-06-05T10:37:18,42.805,6.029,4330,1995,192.180,58.789,13.301
2019-06-05T10:40:18,42.805,6.029,4330,1995,192.371,58.847,13.301
2019-06-05T10:43:18,42.805,6.029,4330,1995,192.453,58.875,13.303
2019-06-05T10:46:18,42.805,6.029,4330,1995,192.547,58.899,13.300
2019-06-05T10:49:18,42.805,6.029,4330,1995,192.608,58.921,13.302
2019-06-05T10:52:18,42.805,6.029,4330,1995,192.718,58.955,13.303
2019-06-05T10:55:18,42.805,6.029,4330,1995,192.741,58.964,13.304
2019-06-05T10:58:18,42.805,6.029,4330,1995,192.836,58.991,13.302
2019-06-05T11:01:18,42.805,6.029,4330,1995,192.709,58.953,13.304
2019-06-05T11:04:18,42.805,6.029,4330,1995,192.750,58.963,13.301
2019-06-05T11:07:18,42.805,6.029,4330,1995,192.727,58.961,13.305
2019-06-05T11:10:18,42.805,6.029,4330,1995,192.597,58.922,13.306
2019-06-05T11:13:18,42.805,6.029,4330,1995,192.577,58.915,13.305
2019-06-05T11:16:18,42.805,6.029,4330,1995,192.395,58.861,13.306
2019-06-05T11:19:18,42.805,6.029,4330,1995,192.289,58.833,13.309
2019-06-05T11:22:18,42.805,6.029,4330,1995,192.204,58.801,13.305
2019-06-05T11:25:18,42.805,6.029,4330,1995,192.224,58.805,13.304
2019-06-05T11:28:18,42.805,6.029,4330,1995,192.337,58.836,13.301
2019-06-05T11:31:18,42.805,6.029,4330,1995,192.409,58.859,13.301
2019-06-05T11:34:18,42.805,6.029,4330,1995,192.465,58.880,13.304
2019-06-05T11:37:18,42.805,6.029,4330,1995,192.477,58.884,13.305
2019-06-05T11:40:18,42.805,6.029,4330,1995,192.452,58.876,13.304
2019-06-05T11:43:18,42.805,6.029,4330,1995,192.512,58.893,13.303
2019-06-05T11:46:18,42.805,6.029,4330,1995,192.704,58.947,13.300
2019-06-05T11:49:18,42.805,6.029,4330,1995,192.650,58.935,13.303
2019-06-05T11:52:18,42.805,6.029,4330,1995,192.465,58.882,13.306
2019-06-05T11:55:18,42.805,6.029,4330,1995,192.525,58.895,13.302
2019-06-05T11:58:18,42.805,6.029,4330,1995,192.560,58.909,13.304
2019-06-05T12:01:18,42.805,6.029,4330,1995,192.458,58.877,13.304
2019-06-05T12:04:18,42.805,6.029,4330,1995,192.440,58.870,13.303
2019-06-05T12:07:18,42.805,6.029,4330,1995,192.189,58.799,13.307
2019-06-05T12:10:18,42.805,6.029,4330,1995,192.241,58.812,13.305
2019-06-05T12:13:18,42.805,6.029,4330,1995,192.270,58.826,13.309
2019-06-05T12:16:18,42.805,6.029,4330,1995,192.324,58.836,13.304
2019-06-05T12:19:18,42.805,6.029,4330,1995,192.214,58.804,13.305
2019-06-05T12:22:18,42.805,6.029,4330,1995,192.240,58.810,13.303
2019-06-05T12:25:18,42.805,6.029,4330,1995,192.150,58.790,13.309
2019-06-05T12:28:18,42.805,6.029,4330,1995,192.145,58.786,13.307
2019-06-05T12:31:18,42.805,6.029,4330,1995,192.189,58.801,13.308
2019-06-05T12:34:18,42.805,6.029,4330,1995,192.126,58.786,13.312
2019-06-05T12:37:18,42.805,6.029,4330,1995,192.130,58.784,13.309
2019-06-05T12:40:18,42.805,6.029,4330,1995,192.128,58.783,13.309
2019-06-05T12:43:18,42.805,6.029,4330,1995,192.042,58.753,13.306
2019-06-05T12:46:18,42.805,6.029,4330,1995,192.043,58.760,13.311
2019-06-05T12:49:18,42.805,6.029,4330,1995,192.093,58.775,13.311
2019-06-05T12:52:18,42.805,6.029,4330,1995,192.115,58.780,13.310
2019-06-05T12:55:18,42.805,6.029,4330,1995,192.121,58.783,13.310
2019-06-05T12:58:18,42.805,6.029,4330,1995,192.079,58.770,13.311
2019-06-05T13:01:18,42.805,6.029,4330,1995,191.967,58.735,13.310
2019-06-05T13:04:18,42.805,6.029,4330,1995,191.784,58.681,13.312
2019-06-05T13:07:18,42.805,6.029,4330,1995,191.466,58.586,13.313
2019-06-05T13:10:18,42.805,6.029,4330,1995,191.001,58.444,13.314
2019-06-05T13:13:18,42.805,6.029,4330,1995,190.533,58.300,13.313
2019-06-05T13:16:18,42.805,6.029,4330,1995,190.412,58.260,13.311
2019-06-05T13:19:18,42.805,6.029,4330,1995,190.457,58.275,13.311
2019-06-05T13:22:18,42.805,6.029,4330,1995,190.496,58.286,13.311
2019-06-05T13:25:18,42.805,6.029,4330,1995,190.120,58.172,13.311
2019-06-05T13:28:18,42.805,6.029,4330,1995,189.565,58.002,13.311
2019-06-05T13:31:18,42.805,6.029,4330,1995,189.088,57.856,13.312
2019-06-05T13:34:18,42.805,6.029,4330,1995,188.812,57.771,13.311
2019-06-05T13:37:18,42.805,6.029,4330,1995,188.818,57.770,13.309
2019-06-05T13:40:18,42.805,6.029,4330,1995,189.197,57.885,13.308
2019-06-05T13:43:18,42.805,6.029,4330,1995,189.711,58.044,13.309
2019-06-05T13:46:18,42.805,6.029,4330,1995,190.184,58.190,13.310
2019-06-05T13:49:18,42.805,6.029,4330,1995,190.572,58.308,13.310
2019-06-05T13:52:18,42.805,6.029,4330,1995,190.672,58.339,13.310
2019-06-05T13:55:18,42.805,6.029,4330,1995,190.767,58.368,13.310
2019-06-05T13:58:18,42.805,6.029,4330,1995,190.729,58.356,13.310
2019-06-05T14:01:18,42.805,6.029,4330,1995,190.562,58.306,13.311
2019-06-05T14:04:18,42.805,6.029,4330,1995,190.333,58.236,13.311
2019-06-05T14:07:18,42.805,6.029,4330,1995,190.239,58.207,13.310
2019-06-05T14:10:18,42.805,6.029,4330,1995,190.050,58.149,13.310
2019-06-05T14:13:18,42.805,6.029,4330,1995,189.759,58.059,13.310
2019-06-05T14:16:18,42.805,6.029,4330,1995,189.316,57.922,13.308
2019-06-05T14:19:18,42.805,6.029,4330,1995,188.841,57.778,13.310
2019-06-05T14:22:18,42.805,6.029,4330,1995,188.635,57.716,13.311
2019-06-05T14:25:18,42.805,6.029,4330,1995,188.615,57.710,13.311
2019-06-05T14:28:18,42.805,6.029,4330,1995,188.690,57.732,13.310
2019-06-05T14:31:18,42.805,6.029,4330,1995,188.854,57.785,13.312
2019-06-05T14:34:18,42.805,6.029,4330,1995,189.017,57.834,13.311
2019-06-05T14:37:18,42.805,6.029,4330,1995,189.237,57.901,13.311
2019-06-05T14:40:18,42.805,6.029,4330,1995,189.489,57.978,13.311
2019-06-05T14:43:18,42.805,6.029,4330,1995,189.804,58.073,13.310
2019-06-05T14:46:18,42.805,6.029,4330,1995,190.055,58.151,13.311
2019-06-05T14:49:18,42.805,6.029,4330,1995,190.295,58.225,13.311
2019-06-05T14:52:18,42.805,6.029,4330,1995,190.532,58.297,13.311
2019-06-05T14:55:18,42.805,6.029,4330,1995,190.683,58.340,13.309
2019-06-05T14:58:18,42.805,6.029,4330,1995,190.716,58.351,13.309
2019-06-05T15:01:18,42.805,6.029,4330,1995,190.793,58.375,13.309
2019-06-05T15:04:18,42.805,6.029,4330,1995,190.707,58.343,13.305
2019-06-05T15:07:18,42.805,6.029,4330,1995,191.026,58.438,13.303
2019-06-05T15:10:18,42.805,6.029,4330,1995,191.235,58.506,13.306
2019-06-05T15:13:18,42.805,6.029,4330,1995,191.188,58.491,13.306
2019-06-05T15:16:18,42.805,6.029,4330,1995,191.224,58.504,13.307
2019-06-05T15:19:18,42.805,6.029,4330,1995,191.253,58.513,13.307
2019-06-05T15:22:18,42.805,6.029,4330,1995,191.267,58.519,13.309
2019-06-05T15:25:18,42.805,6.029,4330,1995,191.317,58.535,13.309
2019-06-05T15:28:18,42.805,6.029,4330,1995,191.353,58.542,13.306
2019-06-05T15:31:18,42.805,6.029,4330,1995,191.540,58.601,13.308
2019-06-05T15:34:18,42.805,6.029,4330,1995,191.613,58.623,13.307
2019-06-05T15:37:18,42.805,6.029,4330,1995,191.659,58.634,13.305
2019-06-05T15:40:18,42.805,6.029,4330,1995,191.618,58.623,13.306
2019-06-05T15:43:18,42.805,6.029,4330,1995,191.603,58.621,13.308
2019-06-05T15:46:18,42.805,6.029,4330,1995,191.661,58.633,13.304
2019-06-05T15:49:18,42.805,6.029,4330,1995,191.544,58.604,13.309
2019-06-05T15:52:18,42.805,6.029,4330,1995,191.522,58.595,13.307
2019-06-05T15:55:18,42.805,6.029,4330,1995,191.603,58.619,13.306
2019-06-05T15:58:18,42.805,6.029,4330,1995,191.748,58.655,13.300
2019-06-05T16:01:18,42.805,6.029,4330,1995,191.836,58.684,13.301
2019-06-05T16:04:18,42.805,6.029,4330,1995,192.022,58.741,13.302
2019-06-05T16:07:18,42.805,6.029,4330,1995,192.062,58.752,13.300
2019-06-05T16:10:18,42.805,6.029,4330,1995,191.937,58.717,13.304
2019-06-05T16:13:18,42.805,6.029,4330,1995,192.254,58.808,13.299
2019-06-05T16:16:18,42.805,6.029,4330,1995,192.528,58.894,13.300
2019-06-05T16:19:18,42.805,6.029,4330,1995,192.573,58.906,13.299
2019-06-05T16:22:18,42.805,6.029,4330,1995,192.774,58.967,13.299
2019-06-05T16:25:18,42.805,6.029,4330,1995,192.698,58.944,13.299
2019-06-05T16:28:18,42.805,6.029,4330,1995,192.555,58.905,13.302
2019-06-05T16:31:18,42.805,6.029,4330,1995,192.495,58.889,13.304
2019-06-05T16:34:18,42.805,6.029,4330,1995,192.451,58.872,13.302
2019-06-05T16:37:18,42.805,6.029,4330,1995,192.415,58.859,13.300
2019-06-05T16:40:18,42.805,6.029,4330,1995,192.339,58.840,13.303
2019-06-05T16:43:18,42.805,6.029,4330,1995,192.022,58.744,13.304
2019-06-05T16:46:18,42.805,6.029,4330,1995,192.031,58.747,13.304
2019-06-05T16:49:18,42.805,6.029,4330,1995,192.069,58.754,13.300
2019-06-05T16:52:18,42.805,6.029,4330,1995,192.325,58.833,13.301
2019-06-05T16:55:18,42.805,6.029,4330,1995,192.334,58.840,13.305
2019-06-05T16:58:18,42.805,6.029,4330,1995,192.260,58.814,13.302
2019-06-05T17:01:18,42.805,6.029,4330,1995,192.262,58.817,13.304
2019-06-05T17:04:18,42.805,6.029,4330,1995,192.564,58.903,13.299
2019-06-05T17:07:18,42.805,6.029,4330,1995,192.982,59.028,13.297
2019-06-05T17:10:18,42.805,6.029,4330,1995,193.088,59.069,13.303
2019-06-05T17:13:18,42.805,6.029,4330,1995,193.100,59.070,13.301
2019-06-05T17:16:18,42.805,6.029,4330,1995,193.148,59.086,13.302
2019-06-05T17:19:18,42.805,6.029,4330,1995,193.013,59.044,13.302
2019-06-05T17:22:18,42.805,6.029,4330,1995,192.778,58.973,13.302
2019-06-05T17:25:18,42.805,6.029,4330,1995,192.588,58.916,13.303
2019-06-05T17:28:18,42.805,6.029,4330,1995,192.419,58.863,13.302
2019-06-05T17:31:18,42.805,6.029,4330,1995,192.316,58.831,13.302
2019-06-05T17:34:18,42.805,6.029,4330,1995,192.205,58.794,13.299
2019-06-05T17:37:18,42.805,6.029,4330,1995,192.147,58.778,13.301
2019-06-05T17:40:18,42.805,6.029,4330,1995,192.181,58.790,13.302
2019-06-05T17:43:18,42.805,6.029,4330,1995,192.039,58.747,13.302
2019-06-05T17:46:18,42.805,6.029,4330,1995,191.968,58.723,13.300
2019-06-05T17:49:18,42.805,6.029,4330,1995,191.813,58.679,13.303
2019-06-05T17:52:18,42.805,6.029,4330,1995,192.010,58.738,13.302
2019-06-05T17:55:18,42.805,6.029,4330,1995,191.896,58.703,13.302
2019-06-05T17:58:18,42.805,6.029,4330,1995,191.952,58.718,13.301
2019-06-05T18:01:18,42.805,6.029,4330,1995,192.056,58.746,13.298
2019-06-05T18:04:18,42.805,6.029,4330,1995,192.203,58.801,13.305
2019-06-05T18:07:18,42.805,6.029,4330,1995,191.989,58.735,13.305